THY8RW LTFM-LTBZ

Flight info

Callsign THY8RW
Flight time 0h 32m
Altitude 25000
Route RATVU UT35 NUMTI UT409 KARGI
Aircraft B738/M-SDE2E3FGHIRWXY/LB1

Departure

Time 2026-05-04 11:08
Airport İstanbul Airport (LTFM)

Arrival

Time 2026-05-04 11:41
Airport Zafer Airport (LTBZ)
Time Latitude Longitude Altitude Speed Heading
2026-05-04 10:26 41.25879 28.75014 312 ft 0 kts 251°
2026-05-04 10:57 41.25880 28.75020 312 ft 3 kts 251°
2026-05-04 10:58 41.25888 28.75052 312 ft 4 kts 256°
2026-05-04 10:58 41.25893 28.75086 312 ft 4 kts 271°
2026-05-04 10:58 41.25887 28.75114 312 ft 4 kts 322°
2026-05-04 10:58 41.25881 28.75119 312 ft 0 kts 342°
2026-05-04 11:05 41.26245 28.75612 314 ft 9 kts 88°
2026-05-04 11:06 41.26280 28.75667 315 ft 9 kts
2026-05-04 11:06 41.26343 28.75666 314 ft 11 kts
2026-05-04 11:06 41.26583 28.75664 308 ft 70 kts 359°
2026-05-04 11:06 41.27307 28.75653 298 ft 136 kts 359°
2026-05-04 11:08 41.35408 28.80364 4333 ft 244 kts 26°
2026-05-04 11:10 41.35547 28.94622 9636 ft 307 kts 163°
2026-05-04 11:12 41.18086 28.96077 13180 ft 392 kts 163°
2026-05-04 11:12 41.15445 28.97007 14008 ft 392 kts 162°
2026-05-04 11:12 41.12841 28.97932 14693 ft 395 kts 162°
2026-05-04 11:12 41.10175 28.98866 15376 ft 399 kts 162°
2026-05-04 11:13 41.07475 28.99794 16106 ft 401 kts 162°
2026-05-04 11:13 41.04768 29.00709 16836 ft 402 kts 163°
2026-05-04 11:13 41.02048 29.01617 17530 ft 404 kts 163°
2026-05-04 11:13 40.99310 29.02527 18151 ft 407 kts 163°
2026-05-04 11:14 40.98381 29.02834 18364 ft 408 kts 163°
2026-05-04 11:16 40.70669 29.11945 23320 ft 440 kts 163°
2026-05-04 11:16 40.67684 29.12921 23742 ft 444 kts 163°
2026-05-04 11:16 40.64676 29.13903 24131 ft 447 kts 163°
2026-05-04 11:17 40.61669 29.14886 24378 ft 452 kts 163°
2026-05-04 11:17 40.58619 29.15880 24621 ft 451 kts 163°
2026-05-04 11:19 40.37067 29.22882 25025 ft 455 kts 163°
2026-05-04 11:19 40.33980 29.23883 25026 ft 457 kts 163°
2026-05-04 11:19 40.30888 29.24884 25021 ft 458 kts 163°
2026-05-04 11:19 40.27790 29.25886 25019 ft 459 kts 163°
2026-05-04 11:20 40.24692 29.26885 25014 ft 459 kts 163°
2026-05-04 11:20 40.21640 29.27869 25027 ft 457 kts 163°
2026-05-04 11:20 40.18557 29.28861 25022 ft 457 kts 163°
2026-05-04 11:20 40.15480 29.29852 25018 ft 456 kts 163°
2026-05-04 11:22 39.93946 29.36762 25009 ft 455 kts 164°
2026-05-04 11:22 39.90871 29.37770 25021 ft 454 kts 161°
2026-05-04 11:23 39.87958 29.39135 25020 ft 437 kts 154°
2026-05-04 11:23 39.85232 29.40661 25012 ft 430 kts 153°
2026-05-04 11:24 39.68761 29.49868 23355 ft 423 kts 155°
2026-05-04 11:25 39.66157 29.51569 22885 ft 416 kts 143°
2026-05-04 11:25 39.63970 29.53967 22472 ft 407 kts 129°
2026-05-04 11:25 39.62259 29.56835 22051 ft 397 kts 116°
2026-05-04 11:26 39.59765 29.63134 21198 ft 390 kts 112°
2026-05-04 11:27 39.51298 29.84573 18177 ft 373 kts 114°
2026-05-04 11:28 39.50123 29.87504 17756 ft 371 kts 114°
2026-05-04 11:28 39.48923 29.90497 17328 ft 368 kts 114°
2026-05-04 11:28 39.47762 29.93393 16906 ft 366 kts 114°
2026-05-04 11:28 39.46590 29.96314 16491 ft 364 kts 114°
2026-05-04 11:29 39.45424 29.99214 16071 ft 362 kts 114°
2026-05-04 11:29 39.44250 30.02095 15653 ft 361 kts 117°
2026-05-04 11:29 39.42607 30.04561 15211 ft 366 kts 141°
2026-05-04 11:29 39.40372 30.06118 14822 ft 367 kts 162°
2026-05-04 11:31 39.24943 30.14071 12723 ft 329 kts 126°
2026-05-04 11:33 39.15210 30.29240 10083 ft 307 kts 128°
2026-05-04 11:33 39.14281 30.30666 9875 ft 303 kts 128°
2026-05-04 11:33 39.12944 30.32717 9664 ft 299 kts 128°
2026-05-04 11:34 39.11611 30.34758 9434 ft 295 kts 129°
2026-05-04 11:34 39.10290 30.36778 9143 ft 294 kts 129°
2026-05-04 11:34 39.08959 30.38717 9049 ft 282 kts 138°
2026-05-04 11:34 39.07302 30.39903 8916 ft 266 kts 168°
2026-05-04 11:35 39.05553 30.40049 8766 ft 250 kts 192°
2026-05-04 11:35 39.03915 30.39450 8455 ft 241 kts 210°
2026-05-04 11:35 39.02565 30.38307 8147 ft 232 kts 223°
2026-05-04 11:35 39.01334 30.36991 7803 ft 229 kts 225°
2026-05-04 11:36 39.00118 30.35662 7433 ft 228 kts 225°
2026-05-04 11:36 38.99042 30.34212 7028 ft 221 kts 245°
2026-05-04 11:36 38.98697 30.32361 6661 ft 211 kts 276°
2026-05-04 11:36 38.99085 30.30593 6296 ft 205 kts 301°
2026-05-04 11:37 38.99921 30.29209 6170 ft 192 kts 312°
2026-05-04 11:37 39.00848 30.28016 5953 ft 184 kts 315°
2026-05-04 11:37 39.01696 30.26863 5748 ft 174 kts 312°
2026-05-04 11:37 39.02478 30.25737 5571 ft 165 kts 312°
2026-05-04 11:38 39.03233 30.24639 5418 ft 164 kts 312°
2026-05-04 11:38 39.03963 30.23571 5221 ft 156 kts 311°
2026-05-04 11:38 39.04666 30.22540 5019 ft 153 kts 312°
2026-05-04 11:38 39.05369 30.21505 4814 ft 153 kts 312°
2026-05-04 11:39 39.06069 30.20478 4606 ft 152 kts 312°
2026-05-04 11:39 39.06754 30.19436 4396 ft 153 kts 311°
2026-05-04 11:40 39.10888 30.13389 3344 ft 117 kts 310°
2026-05-04 11:41 39.11287 30.12813 3349 ft 58 kts 311°
2026-05-04 11:41 39.11501 30.12499 3345 ft 39 kts 311°
2026-05-04 11:41 39.11670 30.12252 3354 ft 35 kts 311°
2026-05-04 11:41 39.11814 30.12039 3337 ft 27 kts 311°
2026-05-04 11:42 39.11929 30.11869 3344 ft 18 kts 311°
2026-05-04 11:42 39.12001 30.11806 3338 ft 9 kts 353°
2026-05-04 11:42 39.12054 30.11779 3339 ft 8 kts 306°
2026-05-04 11:42 39.12031 30.11728 3339 ft 8 kts 183°
2026-05-04 11:43 39.11992 30.11777 3338 ft 8 kts 125°
2026-05-04 11:43 39.11956 30.11832 3337 ft 9 kts 131°
2026-05-04 11:43 39.11908 30.11902 3337 ft 12 kts 131°
2026-05-04 11:43 39.11848 30.11993 3338 ft 15 kts 131°
2026-05-04 11:44 39.11774 30.12099 3350 ft 16 kts 131°
2026-05-04 11:44 39.11700 30.12207 3339 ft 16 kts 131°
2026-05-04 11:44 39.11629 30.12312 3340 ft 15 kts 131°
2026-05-04 11:44 39.11561 30.12412 3340 ft 14 kts 131°
2026-05-04 11:45 39.11496 30.12507 3340 ft 14 kts 132°
2026-05-04 11:45 39.11434 30.12599 3339 ft 13 kts 132°
2026-05-04 11:45 39.11374 30.12686 3339 ft 13 kts 131°
2026-05-04 11:45 39.11319 30.12768 3339 ft 9 kts 127°
2026-05-04 11:46 39.11331 30.12839 3339 ft 9 kts 46°
2026-05-04 11:46 39.11375 30.12892 3339 ft 9 kts 42°
2026-05-04 11:46 39.11419 30.12940 3339 ft 8 kts 41°
2026-05-04 11:46 39.11465 30.12992 3339 ft 10 kts 41°
2026-05-04 11:47 39.11522 30.13056 3339 ft 12 kts 41°
2026-05-04 11:47 39.11580 30.13115 3339 ft 9 kts 20°
2026-05-04 11:47 39.11634 30.13079 3339 ft 9 kts 316°
2026-05-04 11:47 39.11679 30.13077 3339 ft 3 kts 56°
2026-05-04 11:48 39.11682 30.13103 3339 ft 2 kts 83°
2026-05-04 11:48 39.11682 30.13110 3339 ft 0 kts 83°
2026-05-04 11:48 39.11683 30.13114 3339 ft 0 kts 83°